sat.trackr.live / text

‹ back to catalog

STARLINK-31958

NORAD 59924 · 2024-106C

PAYLOAD ACTIVE UNKNOWN

§ Identity

Operator
Country
US
Launch date
2024-06-01
Launch site
AFETR
Launch vehicle
Mass (kg)
RCS (m²)

Purposes: comms

External: N2YO · Heavens-Above · Gunter

§ Orbital elements

Epoch: 2026-09-21T13:00:35.810496Z

Period
94.27 min
Inclination
43.0022°
Eccentricity
0.0001246
Mean motion
15.27593620 rev/d
Perigee alt
482.2 km
Apogee alt
483.9 km
Semi-major
6,861.1 km
B*
1.1123e-4
RAAN
291.9426°
Arg perigee
254.6731°
Mean anomaly
105.3984°
Rev number
13,064

§ Raw data

STARLINK-319581 59924U 24106C   26264.54208114  .00002801  00000+0  11123-3 0  99982 59924  43.0022 291.9426 0001246 254.6731 105.3984 15.27593620130640

JSON: /api/v1/satellites/59924 · /tle

For live sub-satellite position, see the globe view (requires WebGL).

§ Visibility from observer

Set your observer location to see the next 7 days of passes ≥ 10°. The values pass through the URL so the page stays shareable.

No JS? Fill the form by hand. The geolocation button needs JavaScript.